Location: Unspecified
(0.0000°N, 0.0000°E)
Time: 21:11:25
(UTC+00:00)

OV2-1/LCS2 D - Visible Passes

Search period start: 29 April 2025 00:00
Search period end: 09 May 2025 00:00
Orbit: 602 x 634 km, 32.1° (Epoch: 28 April)

Date Brightness Start Highest point End Pass type
(mag) Time Alt. Az. Time Alt. Az. Time Alt. Az.
03 May 6.8 19:17:12 10° SSW 19:19:25 19° S 19:19:25 19° S visible
04 May 6.0 19:32:19 10° SW 19:35:30 36° S 19:35:30 36° S visible
05 May 5.7 19:48:06 10° WSW 19:51:44 53° WSW 19:51:44 53° WSW visible
06 May 5.8 18:21:41 10° SSW 18:25:58 35° SSE 18:30:12 10° E visible
06 May 6.6 20:04:30 10° W 20:08:07 33° NW 20:08:07 33° NW visible
07 May 5.0 18:37:14 10° SW 18:41:56 79° SE 18:46:35 10° ENE visible
07 May 7.6 20:21:49 10° WNW 20:24:36 16° NW 20:24:36 16° NW visible
08 May 7.7 05:03:58 10° N 05:07:00 18° NNE 05:10:04 10° ENE visible
08 May 6.1 18:53:24 10° WSW 18:57:53 45° NW 19:02:20 10° NE visible
